Time,TemperatureF,DewpointF,PressureIn,WindDirection,WindDirectionDegrees,WindSpeedMPH,WindSpeedGustMPH,Humidity,HourlyPrecipIn,Conditions,Clouds,dailyrainin,SoftwareType,DateUTC
2013-04-24 00:00:00,62.2,48.0,30.10,WSW,252,8.0,16.0,60,0.00,,,0.00,weatherlink.com 1.10,2013-04-24 04:00:00,
2013-04-24 00:15:00,61.8,48.0,30.09,WSW,250,6.0,17.0,60,0.00,,,0.00,weatherlink.com 1.10,2013-04-24 04:15:00,
2013-04-24 00:30:00,62.1,47.0,30.10,South,181,9.0,14.0,58,0.00,,,0.00,weatherlink.com 1.10,2013-04-24 04:30:00,
2013-04-24 00:46:00,62.0,47.0,30.10,WNW,284,9.0,16.0,58,0.00,,,0.00,weatherlink.com 1.10,2013-04-24 04:46:00,
2013-04-24 01:01:00,62.1,46.0,30.10,WSW,257,7.0,16.0,57,0.00,,,0.00,weatherlink.com 1.10,2013-04-24 05:01:00,
2013-04-24 01:16:00,62.0,46.0,30.10,WSW,238,7.0,15.0,57,0.00,,,0.00,weatherlink.com 1.10,2013-04-24 05:16:00,
2013-04-24 01:31:00,61.8,47.0,30.11,SW,234,16.0,18.0,58,0.00,,,0.00,weatherlink.com 1.10,2013-04-24 05:31:00,
2013-04-24 01:46:00,61.7,47.0,30.11,SW,214,8.0,19.0,58,0.00,,,0.00,weatherlink.com 1.10,2013-04-24 05:46:00,
2013-04-24 02:01:00,61.8,47.0,30.11,West,262,5.0,16.0,58,0.00,,,0.00,weatherlink.com 1.10,2013-04-24 06:01:00,
2013-04-24 02:16:00,62.0,46.0,30.11,West,262,5.0,21.0,57,0.00,,,0.00,weatherlink.com 1.10,2013-04-24 06:16:00,
2013-04-24 02:31:00,61.8,47.0,30.11,WSW,243,7.0,17.0,58,0.00,,,0.00,weatherlink.com 1.10,2013-04-24 06:31:00,
2013-04-24 02:46:00,62.0,47.0,30.11,WSW,253,5.0,19.0,58,0.00,,,0.00,weatherlink.com 1.10,2013-04-24 06:46:00,
2013-04-24 03:01:00,61.6,47.0,30.11,West,271,7.0,11.0,59,0.00,,,0.00,weatherlink.com 1.10,2013-04-24 07:01:00,
2013-04-24 03:16:00,61.6,47.0,30.10,WNW,283,4.0,13.0,60,0.00,,,0.00,weatherlink.com 1.10,2013-04-24 07:16:00,
2013-04-24 03:31:00,61.3,48.0,30.10,WNW,285,6.0,10.0,61,0.00,,,0.00,weatherlink.com 1.10,2013-04-24 07:31:00,
2013-04-24 03:46:00,61.6,47.0,30.09,WSW,249,5.0,10.0,60,0.00,,,0.00,weatherlink.com 1.10,2013-04-24 07:46:00,
2013-04-24 04:01:00,61.4,48.0,30.09,SE,134,1.0,8.0,61,0.00,,,0.00,weatherlink.com 1.10,2013-04-24 08:01:00,
2013-04-24 04:15:00,61.4,48.0,30.09,WSW,243,7.0,8.0,61,0.00,,,0.00,weatherlink.com 1.10,2013-04-24 08:15:00,
2013-04-24 04:30:00,60.3,48.0,30.07,SE,133,5.0,7.0,64,0.00,,,0.00,weatherlink.com 1.10,2013-04-24 08:30:00,
2013-04-24 04:46:00,59.4,48.0,30.07,SE,127,5.0,8.0,66,0.00,,,0.00,weatherlink.com 1.10,2013-04-24 08:46:00,
2013-04-24 05:01:00,60.1,48.0,30.06,East,99,4.0,6.0,65,0.00,,,0.00,weatherlink.com 1.10,2013-04-24 09:01:00,
2013-04-24 05:16:00,60.4,48.0,30.06,ESE,114,3.0,6.0,64,0.00,,,0.00,weatherlink.com 1.10,2013-04-24 09:16:00,
2013-04-24 05:31:00,60.4,48.0,30.06,South,176,2.0,5.0,64,0.00,,,0.00,weatherlink.com 1.10,2013-04-24 09:31:00,
2013-04-24 05:46:00,60.6,48.0,30.06,SW,232,2.0,5.0,64,0.00,,,0.00,weatherlink.com 1.10,2013-04-24 09:46:00,
2013-04-24 06:01:00,60.7,48.0,30.06,West,264,2.0,5.0,64,0.00,,,0.00,weatherlink.com 1.10,2013-04-24 10:01:00,
2013-04-24 06:16:00,60.7,48.0,30.06,WSW,250,4.0,5.0,64,0.00,,,0.00,weatherlink.com 1.10,2013-04-24 10:16:00,
2013-04-24 06:31:00,60.7,48.0,30.05,West,266,3.0,4.0,64,0.00,,,0.00,weatherlink.com 1.10,2013-04-24 10:31:00,
2013-04-24 06:46:00,60.2,48.0,30.05,WNW,293,4.0,4.0,65,0.00,,,0.00,weatherlink.com 1.10,2013-04-24 10:46:00,
2013-04-24 07:01:00,59.9,48.0,30.05,WNW,296,3.0,3.0,66,0.00,,,0.00,weatherlink.com 1.10,2013-04-24 11:01:00,
2013-04-24 07:16:00,59.9,48.0,30.04,WNW,295,2.0,3.0,66,0.00,,,0.00,weatherlink.com 1.10,2013-04-24 11:16:00,
2013-04-24 07:31:00,59.4,48.0,30.04,West,273,3.0,4.0,67,0.00,,,0.00,weatherlink.com 1.10,2013-04-24 11:31:00,
2013-04-24 07:46:00,56.6,48.0,30.05,NW,307,6.0,6.0,74,0.00,,,0.00,weatherlink.com 1.10,2013-04-24 11:46:00,
2013-04-24 08:02:00,56.8,49.0,30.06,NW,304,7.0,9.0,75,0.00,,,0.00,weatherlink.com 1.10,2013-04-24 12:02:00,
2013-04-24 08:17:00,57.7,49.0,30.05,WNW,287,6.0,8.0,73,0.00,,,0.00,weatherlink.com 1.10,2013-04-24 12:17:00,
2013-04-24 08:32:00,58.4,49.0,30.05,West,269,8.0,10.0,72,0.00,,,0.00,weatherlink.com 1.10,2013-04-24 12:32:00,
2013-04-24 08:47:00,60.1,50.0,30.05,West,266,9.0,16.0,70,0.00,,,0.00,weatherlink.com 1.10,2013-04-24 12:47:00,
2013-04-24 09:02:00,60.5,51.0,30.05,WNW,290,8.0,16.0,70,0.00,,,0.00,weatherlink.com 1.10,2013-04-24 13:02:00,
2013-04-24 09:17:00,62.0,52.0,30.04,WSW,251,5.0,19.0,69,0.00,,,0.00,weatherlink.com 1.10,2013-04-24 13:17:00,
2013-04-24 09:32:00,63.5,52.0,30.03,SW,219,4.0,15.0,67,0.00,,,0.00,weatherlink.com 1.10,2013-04-24 13:32:00,
2013-04-24 09:47:00,65.8,53.0,30.03,ENE,61,15.0,19.0,63,0.00,,,0.00,weatherlink.com 1.10,2013-04-24 13:47:00,
2013-04-24 10:02:00,67.6,53.0,30.03,South,186,11.0,24.0,60,0.00,,,0.00,weatherlink.com 1.10,2013-04-24 14:02:00,
2013-04-24 10:17:00,68.1,53.0,30.03,East,87,13.0,32.0,59,0.00,,,0.00,weatherlink.com 1.10,2013-04-24 14:17:00,
2013-04-24 10:32:00,68.7,53.0,30.04,SSW,198,7.0,35.0,58,0.00,,,0.00,weatherlink.com 1.10,2013-04-24 14:32:00,
2013-04-24 10:47:00,68.4,53.0,30.06,SSW,198,27.0,30.0,58,0.00,,,0.00,weatherlink.com 1.10,2013-04-24 14:47:00,
2013-04-24 11:02:00,67.7,53.0,30.06,South,189,15.0,30.0,59,0.00,,,0.00,weatherlink.com 1.10,2013-04-24 15:02:00,
2013-04-24 11:17:00,68.7,54.0,30.07,SW,221,13.0,27.0,59,0.00,,,0.00,weatherlink.com 1.10,2013-04-24 15:17:00,
2013-04-24 11:32:00,68.4,54.0,30.06,ESE,117,14.0,20.0,60,0.00,,,0.00,weatherlink.com 1.10,2013-04-24 15:32:00,
2013-04-24 11:47:00,69.0,53.0,30.04,SE,138,12.0,31.0,58,0.00,,,0.00,weatherlink.com 1.10,2013-04-24 15:47:00,
2013-04-24 12:02:00,69.6,54.0,30.04,South,188,9.0,20.0,57,0.00,,,0.00,weatherlink.com 1.10,2013-04-24 16:02:00,
2013-04-24 12:17:00,69.9,53.0,30.04,SW,230,13.0,29.0,56,0.00,,,0.00,weatherlink.com 1.10,2013-04-24 16:17:00,
2013-04-24 12:32:00,70.3,54.0,30.04,ESE,113,9.0,28.0,56,0.00,,,0.00,weatherlink.com 1.10,2013-04-24 16:32:00,
2013-04-24 12:47:00,70.8,54.0,30.04,NNE,29,2.0,28.0,56,0.00,,,0.00,weatherlink.com 1.10,2013-04-24 16:47:00,
2013-04-24 13:02:00,69.7,55.0,30.04,WNW,288,4.0,23.0,59,0.00,,,0.00,weatherlink.com 1.10,2013-04-24 17:02:00,
2013-04-24 13:17:00,69.3,55.0,30.05,West,280,11.0,20.0,60,0.00,,,0.00,weatherlink.com 1.10,2013-04-24 17:17:00,
2013-04-24 13:32:00,68.4,55.0,30.05,West,259,22.0,28.0,62,0.00,,,0.00,weatherlink.com 1.10,2013-04-24 17:32:00,
2013-04-24 13:47:00,64.5,58.0,30.07,WNW,295,8.0,27.0,78,0.04,,,0.04,weatherlink.com 1.10,2013-04-24 17:47:00,
2013-04-24 14:02:00,63.1,58.0,30.07,WNW,303,12.0,26.0,84,0.05,,,0.05,weatherlink.com 1.10,2013-04-24 18:02:00,
2013-04-24 14:17:00,61.5,59.0,30.07,WNW,289,16.0,28.0,91,0.09,,,0.09,weatherlink.com 1.10,2013-04-24 18:17:00,
2013-04-24 14:32:00,61.3,59.0,30.05,SSW,205,5.0,21.0,92,0.10,,,0.10,weatherlink.com 1.10,2013-04-24 18:32:00,
2013-04-24 14:47:00,61.5,59.0,30.05,WNW,288,10.0,20.0,92,0.06,,,0.10,weatherlink.com 1.10,2013-04-24 18:47:00,
2013-04-24 15:02:00,61.6,59.0,30.07,South,189,5.0,22.0,92,0.05,,,0.10,weatherlink.com 1.10,2013-04-24 19:02:00,
2013-04-24 15:17:00,61.3,59.0,30.06,West,269,8.0,15.0,92,0.02,,,0.11,weatherlink.com 1.10,2013-04-24 19:17:00,
2013-04-24 15:32:00,61.3,59.0,30.07,NW,308,9.0,19.0,93,0.02,,,0.12,weatherlink.com 1.10,2013-04-24 19:32:00,
2013-04-24 15:47:00,61.4,59.0,30.07,West,278,22.0,22.0,93,0.02,,,0.12,weatherlink.com 1.10,2013-04-24 19:47:00,
2013-04-24 16:02:00,61.6,59.0,30.07,SW,235,15.0,22.0,92,0.02,,,0.12,weatherlink.com 1.10,2013-04-24 20:02:00,
2013-04-24 16:17:00,62.0,59.0,30.06,WSW,248,7.0,18.0,91,0.01,,,0.12,weatherlink.com 1.10,2013-04-24 20:17:00,
2013-04-24 16:32:00,62.2,60.0,30.05,SW,220,8.0,18.0,91,0.00,,,0.12,weatherlink.com 1.10,2013-04-24 20:32:00,
2013-04-24 16:47:00,62.9,60.0,30.04,West,268,7.0,15.0,89,0.00,,,0.12,weatherlink.com 1.10,2013-04-24 20:47:00,
2013-04-24 17:02:00,63.0,60.0,30.05,WSW,250,12.0,18.0,91,0.00,,,0.12,weatherlink.com 1.10,2013-04-24 21:02:00,
2013-04-24 17:17:00,63.0,60.0,30.05,SW,220,2.0,18.0,89,0.00,,,0.12,weatherlink.com 1.10,2013-04-24 21:17:00,
2013-04-24 17:32:00,63.2,60.0,30.05,WSW,248,11.0,19.0,89,0.00,,,0.12,weatherlink.com 1.10,2013-04-24 21:32:00,
2013-04-24 17:48:00,58.6,56.0,30.07,West,272,4.0,18.0,90,0.01,,,0.13,weatherlink.com 1.10,2013-04-24 21:48:00,
2013-04-24 18:03:00,58.3,56.0,30.08,NW,323,10.0,12.0,92,0.01,,,0.13,weatherlink.com 1.10,2013-04-24 22:03:00,
2013-04-24 18:18:00,57.0,54.0,30.08,NNW,342,2.0,9.0,88,0.01,,,0.13,weatherlink.com 1.10,2013-04-24 22:18:00,
2013-04-24 18:33:00,56.1,53.0,30.10,WNW,300,8.0,12.0,88,0.01,,,0.13,weatherlink.com 1.10,2013-04-24 22:33:00,
2013-04-24 18:48:00,54.9,52.0,30.11,East,82,3.0,16.0,89,0.00,,,0.13,weatherlink.com 1.10,2013-04-24 22:48:00,
2013-04-24 19:18:00,52.0,49.0,30.13,WNW,300,1.0,18.0,88,0.00,,,0.13,weatherlink.com 1.10,2013-04-24 23:18:00,
2013-04-24 19:33:00,50.8,47.0,30.14,NW,309,11.0,14.0,87,0.00,,,0.13,weatherlink.com 1.10,2013-04-24 23:33:00,
2013-04-24 19:48:00,49.7,47.0,30.15,ESE,102,2.0,9.0,89,0.00,,,0.13,weatherlink.com 1.10,2013-04-24 23:48:00,
2013-04-24 20:03:00,48.4,46.0,30.17,North,1,13.0,15.0,91,0.01,,,0.14,weatherlink.com 1.10,2013-04-25 00:03:00,
2013-04-24 20:18:00,47.9,45.0,30.18,SSW,193,1.0,10.0,90,0.01,,,0.14,weatherlink.com 1.10,2013-04-25 00:18:00,
2013-04-24 20:33:00,47.5,44.0,30.19,North,356,10.0,12.0,88,0.01,,,0.14,weatherlink.com 1.10,2013-04-25 00:33:00,
2013-04-24 20:48:00,47.3,44.0,30.21,West,274,1.0,12.0,88,0.01,,,0.14,weatherlink.com 1.10,2013-04-25 00:48:00,
2013-04-24 21:03:00,47.3,44.0,30.23,WNW,300,2.0,8.0,88,0.00,,,0.14,weatherlink.com 1.10,2013-04-25 01:03:00,
2013-04-24 21:18:00,47.1,44.0,30.23,NW,314,3.0,10.0,87,0.00,,,0.14,weatherlink.com 1.10,2013-04-25 01:18:00,
2013-04-24 21:33:00,47.1,43.0,30.24,SW,217,3.0,14.0,85,0.00,,,0.14,weatherlink.com 1.10,2013-04-25 01:33:00,
2013-04-24 21:47:00,47.2,43.0,30.25,NW,319,5.0,11.0,85,0.00,,,0.14,weatherlink.com 1.10,2013-04-25 01:47:00,
2013-04-24 22:02:00,47.0,43.0,30.26,WNW,302,4.0,10.0,85,0.00,,,0.14,weatherlink.com 1.10,2013-04-25 02:02:00,
2013-04-24 22:17:00,47.0,42.0,30.27,WNW,294,3.0,13.0,82,0.00,,,0.14,weatherlink.com 1.10,2013-04-25 02:17:00,
2013-04-24 22:33:00,47.0,42.0,30.27,NNW,331,3.0,14.0,82,0.00,,,0.14,weatherlink.com 1.10,2013-04-25 02:33:00,
2013-04-24 22:49:00,46.7,41.0,30.28,North,11,0.0,10.0,81,0.00,,,0.14,weatherlink.com 1.10,2013-04-25 02:49:00,
2013-04-24 23:04:00,46.5,41.0,30.28,WNW,302,0.0,8.0,80,0.00,,,0.14,weatherlink.com 1.10,2013-04-25 03:04:00,
2013-04-24 23:19:00,46.1,40.0,30.28,East,82,2.0,11.0,80,0.00,,,0.14,weatherlink.com 1.10,2013-04-25 03:19:00,
2013-04-24 23:34:00,45.9,40.0,30.29,North,356,6.0,13.0,79,0.00,,,0.14,weatherlink.com 1.10,2013-04-25 03:34:00,
2013-04-24 23:48:00,45.7,40.0,30.29,North,10,5.0,14.0,80,0.00,,,0.14,weatherlink.com 1.10,2013-04-25 03:48:00,